Regional Weather Roundup
Issued by NWS Austin/San Antonio, TX

Current Version | Previous Version | Text Only | Print | Product List | Glossary On
Versions: 1 2 3 4 5 6 7 8 9 10 11 12 13 14 15 16 17 18 19 20 21 22 23 24 25 26 27 28 29 30 31 32 33 34 35 36 37 38 39 40 41 42 43 44 45 46 47 48 49 50
000
ASUS44 KEWX 171410
RWREWX
SOUTH TEXAS REGIONAL WEATHER ROUNDUP
NATIONAL WEATHER SERVICE AUSTIN/SAN ANTONIO TX
900 AM CDT THU JUN 17 2021

NOTE: "FAIR" INDICATED FEW OR NO CLOUDS BELOW 12,000 FEET WITH NO
SIGNIFICANT WEATHER AND/OR OBSTRUCTIONS TO VISIBILITY.

* - THESE STATIONS ARE NOT NWS OR FAA STATIONS...AND ARE NOT SUBJECT
    TO NWS AND FAA QUALITY CONTROL.

TXZ171-172-183>190-171500-
TEXAS HILL COUNTRY AND EDWARDS PLATEAU

CITY           SKY/WX    TMP DP  RH WIND       PRES   REMARKS
JUNCTION       SUNNY     75  64  68 CALM      30.10R
*LLANO         SUNNY     77  68  73 CALM      30.07R
BURNET         SUNNY     83  68  60 W8        30.09R
*HORSESHOE BAY SUNNY     79  68  68 N3        30.07R
*LAGO VISTA    SUNNY     85  70  60 W5        30.07R HX  90
*KERRVILLE     SUNNY     74  69  83 CALM      30.09R
*FREDERICKSBRG SUNNY     75  66  75 CALM      30.09S
*ROCKSPRINGS     N/A     79  64  61 MISG      30.16R
*BOERNE        SUNNY     79  68  69 CALM      30.07R
*CASTROVILLE   SUNNY     83  69  64 CALM      30.05R
HONDO          SUNNY     79  71  76 N6        30.04R
*UVALDE        SUNNY     78  71  77 CALM      30.06R
DEL RIO        SUNNY     83  66  56 E6        30.03R
*LAUGHLIN AFB  SUNNY     81  65  57 E5        30.04R
*SPOFFORD      SUNNY     80  67  63 E3        29.98R
*EAGLE PASS    SUNNY     81  64  57 E5        30.03R
CARRIZO SPRGS  SUNNY    N/A N/A N/A NE3       30.02R
$$

TXZ173-191>194-202-209-217>225-228-171500-
CENTRAL AND SOUTH CENTRAL TEXAS

CITY           SKY/WX    TMP DP  RH WIND       PRES   REMARKS
GEORGETOWN     SUNNY     83  72  69 NW6       30.07R
*TAYLOR        SUNNY     82  73  73 N5        30.03R
AUSTIN/BERGSTM SUNNY     83  71  67 CALM      30.02R
AUSTIN/MABRY   SUNNY     84  69  60 CALM      30.04R
*PFLUGERVILLE  SUNNY     84  72  65 CALM      30.02R
SAN MARCOS     SUNNY     85  74  69 N6        30.04R HX  92
NEW BRAUNFELS  SUNNY     85  72  65 N5        30.02R HX  91
*RANDOLPH AFB  SUNNY     83  71  66 N5        30.02R
*SEGUIN        SUNNY     81  72  74 E5        30.07R
SAN ANTONIO    SUNNY     83  71  67 VRB3      30.04R
STINSON FIELD  SUNNY     86  73  65 N3        30.00R HX  93
*KELLY FIELD   SUNNY     83  72  68 N3        30.01R
*PLEASANTON    SUNNY     83  71  65 NE3       30.03R
*KENEDY        SUNNY     82  72  72 NE6       30.02R
*LA GRANGE     SUNNY     84  76  77 N3        29.99S HX  92
*GIDDINGS      SUNNY     83  73  72 CALM      30.03R
*GONZALES      SUNNY     83  75  75 CALM      30.02R HX  90
$$

TXZ163>164-176>182-195>201-210>213-226-227-235-171500-
SOUTHEAST TEXAS

CITY           SKY/WX    TMP DP  RH WIND       PRES   REMARKS
COLLEGE STN    SUNNY     84  73  69 NW3       30.01R HX  90
*BRYAN         SUNNY     84  73  70 CALM      30.03R HX  90
*CALDWELL      SUNNY     84  74  70 CALM      30.02S HX  91
*CROCKETT      SUNNY     81  72  74 VRB5      30.03R
*BRENHAM       SUNNY     85  76  74 NW3       30.02R HX  95
HUNTSVILLE     SUNNY     84  73  69 VRB3      30.03R HX  90
CONROE         SUNNY     82  72  71 E5        30.02R
HOUSTON BUSH   MOSUNNY   85  70  60 NE9       30.00R
HOUSTON HOBBY  MOSUNNY   87  71  58 NE10      29.99R HX  93
*HOUSTON SW AP SUNNY     84  74  71 NE7       30.01R HX  92
PEARLAND       SUNNY     86  72  62 N8        30.01R HX  92
HOUSTON HOOKS  SUNNY     84  75  74 NE5       30.01R HX  92
ELLINGTON FLD  SUNNY     84  73  70 NE7       29.99R HX  91
SUGAR LAND     SUNNY     86  74  67 NE9       30.00R HX  94
*HOUSTON EXEC  NOT AVBL
*CLEVELAND MUN MOSUNNY   81  69  67 CALM      30.03R
*WHARTON       SUNNY     82  74  76 N7        30.00R
*COLUMBUS      FAIR      82  75  79 N3        30.02R
*EAGLE LAKE    NOT AVBL
$$

TXZ214>216-236>238-171500-
THE UPPER TEXAS COAST

CITY           SKY/WX    TMP DP  RH WIND       PRES   REMARKS
*ORANGE        SUNNY     83  65  55 CALM      30.03R
PORT ARTHUR    SUNNY     83  69  62 E10       29.99R
GALVESTON      SUNNY     87  72  60 NE13      29.99R HX  93
ANGLETON       SUNNY     84  72  67 N10       29.99R
*BAY CITY      SUNNY     82  76  83 N8        29.99R
PALACIOS       SUNNY     82  78  88 N12       29.98R HX  91
$$

TXZ229>234-239>247-171500-
TEXAS COASTAL BEND AND RIO GRANDE PLAINS

CITY           SKY/WX    TMP DP  RH WIND       PRES   REMARKS
VICTORIA       SUNNY     83  75  77 N6        30.00R HX  90
*BEEVILLE      SUNNY     81  80  95 NE5       30.00R HX  92
ROCKPORT       SUNNY     83  76  79 N10       29.97S HX  91
*PORT ARANSAS  SUNNY     84  77  79 N14       29.99R HX  93
*PORT LAVACA   SUNNY     83  76  77 N7        29.99S HX  92
*INGLESIDE     SUNNY     85  77  78 NE10      29.97S HX  95
CORPUS CHRISTI MOSUNNY   84  75  74 N9        29.98S HX  92
CORPUS NAS     MOSUNNY   85  76  74 NE14      29.97R HX  94
*ROBSTOWN      SUNNY     84  77  80 N7        29.99S HX  94
ALICE          SUNNY     80  75  84 N9        29.99R
KINGSVILLE NAS MOSUNNY   83  75  77 NE10      29.98R HX  90
COTULLA        SUNNY     83  69  62 N7        30.01S
LAREDO         SUNNY     82  73  74 NE5       30.01R
$$

TXZ248>255-171500-
DEEP SOUTH TEXAS

CITY           SKY/WX    TMP DP  RH WIND       PRES   REMARKS
BROWNSVILLE    MOSUNNY   83  74  74 N8        29.94R
PORT ISABEL    PTSUNNY   84  74  71 NE14      29.94R HX  91
HARLINGEN      SUNNY     82  79  90 N8        29.95R HX  92
*HEBBRONVILLE  SUNNY     78  68  71 E7        30.03R
MCALLEN        SUNNY     80  72  76 N7        29.97R
*WESLACO       SUNNY     79  74  85 N7        29.96R
FALFURRIAS     MOSUNNY   77  73  87 NE7       29.99R
EDINBURG       MOSUNNY   78  75  91 N7        29.98R
*ZAPATA        MOSUNNY   84  75  72 E3        30.02R HX  92
$$

TXZ213>215-236>238-242>244-246-247-251-254-255-171500-
CMAN STATIONS

STATION/POSITION TIME  TEMP    WIND        PRES    WAVE
                       AIR SEA DIR/SP/G            HT/PER
                 (UTC) (F)     (DEG/KT/KT) (MB)    (FT/S)
NORTH JETTY/GLS  1324   83 85   70/ 14/ 15 1014.1
EAGLE POINT      1330   83 87   60/ 12/ 13 1015.0
MORGANS POINT    1330   81 85   60/  9/ 10 1015.4
MISSION/ARANSAS  1300   78     360/  9     1016.0
PORT O`CONNOR    1324   80 88   10/ 11/ 12 1014.9
PORT ARANSAS     1400   82 85   10/ 12/ 14   N/A
MALAQUITE BEACH  1324   83     340/ 11/ 13   N/A
BAFFIN BAY       1324   81 87  340/ 12/ 14 1014.1
PORT ISABEL      1324   83 85   20/ 13/ 16 1014.5
$$



USA.gov is the U.S. government's official web portal to all federal, state and local government web resources and services.